Home   Weather   Asyut   Past weeks
Flag for Egypt

Past Weather in Asyut, Egypt — Yesterday and Last 2 Weeks

Now
106 °F

Sunny.


Feels Like: 105 °F
Forecast: 108 / 76 °F
Wind: 7 mph from West

Location: Asyut Airport

Current Time: May 24, 2019 at 7:32:15 pm

Latest Report: May 24, 2019 at 6:00 pm


Visibility: 10 mi

Pressure: 29.80 "Hg

Humidity: 19%

Dew Point: 55 °F

Location of AsyutLocation

Past Weather in Asyut — Graph

°F

Asyut Temperature Yesterday

Maximum temperature yesterday: 111 °F (at 12:00 pm)
Minimum temperature yesterday: 82 °F (at 3:00 am)
Average temperature yesterday: 97 °F

High & Low Weather Summary for the Past Weeks

 TemperatureHumidityPressure
High115 °F (May 24, 3:00 pm)57% (May 20, 4:00 am)30.04 "Hg (May 20, 4:00 am)
Low59 °F (May 10, 5:00 am)15% (May 16, 3:00 pm)29.74 "Hg (May 16, 4:00 am)
Average86 °F30%29.90 "Hg
* Reported May 9 6:00 pm — May 24 6:00 pm, Asyut. Weather by CustomWeather, © 2019

Note: Actual official high and low records may vary slightly from our data, if they occured in-between our weather recording intervals... More about our weather records

Advertising

Asyut Weather History for the Previous 24 Hours

Scroll right to see more
 ConditionsComfort  
Time TempWeatherWind HumidityBarometerVisibility
6:00 pm
Fri, May 24
106 °FSunny.7 mph19%29.80 "Hg10 mi
5:00 pm109 °FSunny.6 mph17%29.80 "Hg10 mi
4:00 pm111 °FSunny.7 mph17%29.80 "Hg10 mi
3:00 pm115 °FSunny.9 mph15%29.80 "Hg10 mi
12:00 pm109 °FSunny.7 mph18%29.86 "Hg10 mi
11:00 am106 °FSunny.3 mph20%29.89 "Hg10 mi
10:00 am100 °FSunny.No wind20%29.92 "Hg10 mi
9:00 am97 °FSunny.3 mph20%29.89 "Hg10 mi
8:00 am91 °FSunny.5 mph24%29.89 "Hg10 mi
7:00 am90 °FSunny.7 mph27%29.86 "Hg10 mi
6:00 am86 °FSunny.9 mph29%29.86 "Hg10 mi
5:00 am84 °FClear.10 mph31%29.83 "Hg10 mi
4:00 am88 °FClear.13 mph25%29.83 "Hg10 mi
3:00 am90 °FClear.12 mph22%29.83 "Hg10 mi
2:00 am90 °FClear.14 mph24%29.83 "Hg10 mi
1:00 am88 °FClear.9 mph25%29.83 "Hg10 mi
12:00 am90 °FClear.8 mph26%29.86 "Hg10 mi
11:00 pm
Thu, May 23
91 °FClear.5 mph24%29.89 "Hg10 mi
10:00 pm95 °FClear.No wind25%29.89 "Hg10 mi
9:00 pm97 °FClear.5 mph23%29.86 "Hg10 mi
8:00 pm99 °FClear.6 mph22%29.86 "Hg10 mi
7:00 pm106 °FClear.6 mph18%29.86 "Hg10 mi
Weather by CustomWeather, © 2019

See weather overview